Weather History for LFKJ - October, 2013

Change the Weather History Date:

Monday, October 14, 2013

  Actual Average Record
Temperature  
Mean Temperature 64 °F -  
Max Temperature 74 °F 66 °F 78 °F (1996)
Min Temperature 55 °F 49 °F 46 °F (1997)
Growing Degree Days 14 (Base 50)    
Moisture  
Dew Point 57 °F    
Average Humidity 78    
Maximum Humidity 88    
Minimum Humidity 53    
Precipitation  
Precipitation 0.03 in 0.12 in - ()
Sea Level Pressure  
Sea Level Pressure 30.11 in    
Wind  
Wind Speed 6 mph ()    
Max Wind Speed 9 mph    
Max Gust Speed -    
Visibility 6.7 miles    
Events Rain    
Averages and records for this station are not official NWS values.
T = Trace of Precipitation, MM = Missing Value Source: Averaged Metar Reports

Daily Weather History Graph

Daily Weather History Graph

Search for Another Location

Airport or City:

Trip Planner

Search our weather history database for the weather conditions in past years. The results will help you decide how hot, cold, wet, or windy it might be!

Date:

Astronomy

Oct. 14, 2013 Rise Set
Actual Time 7:36 AM CEST 6:44 PM CEST
Civil Twilight 7:07 AM CEST 7:12 PM CEST
Nautical Twilight 6:35 AM CEST 7:45 PM CEST
Astronomical Twilight 6:03 AM CEST 8:17 PM CEST
Moon 4:08 PM CEST (10/14) 2:29 AM CEST (10/14)
Length of Visible Light 12h 04m
Length of Day
11h 08m
Waxing Gibbous, 77% of the Moon is Illuminated
Oct 14
Waxing Gibbous
Oct 19
Full
Oct 27
Last Quarter
Nov 3
New
Nov 10
First Quarter

Hourly Weather History & Observations

Time (CEST) Temp. Dew Point Humidity Pressure Visibility Wind Dir Wind Speed Gust Speed Precip Events Conditions
12:00 AM 60.8 °F 57.2 °F 88% 30.15 in 6.2 mi NE 6.9 mph - N/A   Mostly Cloudy
12:34 AM 59.0 °F 55.4 °F 88% 30.15 in 6.2 mi NE 6.9 mph - N/A   Scattered Clouds
1:00 AM 59.0 °F 55.4 °F 88% 30.15 in 6.2 mi NE 6.9 mph - N/A   Scattered Clouds
1:30 AM 59.0 °F 55.4 °F 88% 30.12 in 6.2 mi NE 6.9 mph - N/A   Unknown
2:00 AM 59 °F 55 °F 82% 30.14 in 22 mi NNE 9.2 mph - -   Clear
2:00 AM 59.0 °F 55.4 °F 88% 30.12 in 6.2 mi NNE 9.2 mph - N/A   Unknown
2:30 AM 59.0 °F 53.6 °F 82% 30.12 in 6.2 mi NE 8.1 mph - N/A   Unknown
3:00 AM 59.0 °F 53.6 °F 82% 30.12 in 6.2 mi NE 5.8 mph - N/A   Unknown
3:30 AM 57.2 °F 53.6 °F 88% 30.12 in 6.2 mi ENE 6.9 mph - N/A   Unknown
4:00 AM 57.2 °F 51.8 °F 82% 30.09 in 6.2 mi NE 8.1 mph - N/A   Unknown
4:30 AM 57.2 °F 53.6 °F 88% 30.09 in 6.2 mi NE 8.1 mph - N/A   Unknown
5:00 AM 57.2 °F 53.6 °F 88% 30.09 in 6.2 mi NE 8.1 mph - N/A   Unknown
5:30 AM 57.2 °F 51.8 °F 82% 30.09 in 6.2 mi NE 8.1 mph - N/A   Unknown
6:00 AM 57.2 °F 51.8 °F 82% 30.09 in 6.2 mi NNE 8.1 mph - N/A   Unknown
6:30 AM 57.2 °F 51.8 °F 82% 30.09 in 6.2 mi NE 8.1 mph - N/A   Unknown
7:00 AM 57.2 °F 51.8 °F 82% 30.09 in 6.2 mi NE 9.2 mph - N/A   Scattered Clouds
7:30 AM 57.2 °F 51.8 °F 82% 30.09 in 6.2 mi NE 8.1 mph - N/A   Mostly Cloudy
8:00 AM 57 °F 52 °F 76% 30.12 in 25 mi NE 8.1 mph - -   Scattered Clouds
8:00 AM 57.2 °F 51.8 °F 82% 30.09 in 6.2 mi NE 9.2 mph - N/A   Mostly Cloudy
8:30 AM 57.2 °F 51.8 °F 82% 30.09 in 6.2 mi NE 6.9 mph - N/A   Mostly Cloudy
9:00 AM 60.8 °F 53.6 °F 77% 30.12 in 6.2 mi NNE 8.1 mph - N/A   Mostly Cloudy
9:30 AM 62.6 °F 53.6 °F 72% 30.12 in 6.2 mi Variable 3.5 mph - N/A   Mostly Cloudy
10:00 AM 68.0 °F 55.4 °F 64% 30.12 in 6.2 mi Variable 3.5 mph - N/A   Mostly Cloudy
10:30 AM 71.6 °F 53.6 °F 53% 30.12 in 6.2 mi Variable 1.2 mph - N/A   Mostly Cloudy
11:00 AM 69.8 °F 57.2 °F 64% 30.12 in 6.2 mi SSW 4.6 mph - N/A   Mostly Cloudy
11:30 AM 69.8 °F 55.4 °F 60% 30.12 in 6.2 mi WSW 5.8 mph - N/A   Mostly Cloudy
12:00 PM 69.8 °F 57.2 °F 64% 30.15 in 6.2 mi West 4.6 mph - N/A   Mostly Cloudy
12:30 PM 69.8 °F 60.8 °F 73% 30.15 in 6.2 mi NW 9.2 mph - N/A Rain Rain Showers
1:00 PM 68.0 °F 60.8 °F 78% 30.12 in 6.2 mi NE 9.2 mph - N/A   Mostly Cloudy
1:30 PM 68.0 °F 60.8 °F 78% 30.12 in 6.2 mi North 4.6 mph - N/A   Mostly Cloudy
2:00 PM 68 °F 60 °F 68% 30.13 in 19 mi North 4.6 mph - - Rain Light Rain
2:00 PM 68.0 °F 59.0 °F 73% 30.12 in 6.2 mi NNE 4.6 mph - N/A   Mostly Cloudy
2:30 PM 68.0 °F 59.0 °F 73% 30.09 in 6.2 mi NNE 6.9 mph - N/A   Mostly Cloudy
3:00 PM 69.8 °F 60.8 °F 73% 30.09 in 6.2 mi Variable 2.3 mph - N/A   Mostly Cloudy
3:30 PM 73.4 °F 62.6 °F 69% 30.09 in 6.2 mi SSE 4.6 mph - N/A   Mostly Cloudy
4:00 PM 73.4 °F 59.0 °F 61% 30.09 in 6.2 mi Variable 2.3 mph - N/A   Mostly Cloudy
4:30 PM 73.4 °F 60.8 °F 65% 30.06 in 6.2 mi SW 3.5 mph - N/A   Scattered Clouds
5:00 PM 73.4 °F 59.0 °F 61% 30.09 in 6.2 mi SW 6.9 mph - N/A   Partly Cloudy
5:30 PM 71.6 °F 60.8 °F 69% 30.09 in 6.2 mi SW 4.6 mph - N/A   Partly Cloudy
6:00 PM 71.6 °F 62.6 °F 73% 30.09 in 6.2 mi WSW 2.3 mph - N/A   Scattered Clouds
6:30 PM 69.8 °F 60.8 °F 73% 30.09 in 6.2 mi SSE 2.3 mph - N/A   Mostly Cloudy
7:00 PM 68.0 °F 60.8 °F 78% 30.09 in 6.2 mi South 3.5 mph - N/A   Mostly Cloudy
7:30 PM 68.0 °F 62.6 °F 83% 30.09 in 6.2 mi Variable 2.3 mph - N/A   Mostly Cloudy
8:00 PM 66 °F 61 °F 78% 30.12 in 19 mi NE 3.5 mph - -   Mostly Cloudy
8:00 PM 66.2 °F 60.8 °F 83% 30.09 in 6.2 mi NE 4.6 mph - N/A   Mostly Cloudy
8:30 PM 66.2 °F 60.8 °F 83% 30.09 in 6.2 mi ENE 4.6 mph - N/A   Mostly Cloudy
9:00 PM 64.4 °F 60.8 °F 88% 30.09 in 6.2 mi NE 6.9 mph - N/A   Mostly Cloudy
9:30 PM 64.4 °F 59.0 °F 83% 30.09 in 6.2 mi NE 6.9 mph - N/A   Mostly Cloudy
10:00 PM 64.4 °F 59.0 °F 83% 30.12 in 6.2 mi NE 5.8 mph - N/A   Mostly Cloudy
10:30 PM 62.6 °F 59.0 °F 88% 30.12 in 6.2 mi NE 6.9 mph - N/A   Mostly Cloudy
11:00 PM 62.6 °F 59.0 °F 88% 30.12 in 6.2 mi NE 5.8 mph - N/A   Mostly Cloudy
11:30 PM 62.6 °F 57.2 °F 82% 30.12 in 6.2 mi NE 6.9 mph - N/A   Mostly Cloudy